GIA009 WIDD-WIII

Flight info

Callsign GIA009
Flight time 1h 21m
Altitude 37000
Route ANITO B470 BUNIK
Aircraft B738/M-SDE2E3FGHIRWXY/LB1

Departure

Time 2026-05-06 18:07
Airport Hang Nadim International Airport (WIDD)

Arrival

Time 2026-05-06 19:29
Airport Soekarno-Hatta International Airport (WIII)
Time Latitude Longitude Altitude Speed Heading
2026-05-06 17:45 1.12320 104.11638 136 ft 0 kts 311°
2026-05-06 17:59 1.12313 104.11647 136 ft 4 kts 313°
2026-05-06 17:59 1.12294 104.11665 136 ft 4 kts 319°
2026-05-06 18:00 1.12272 104.11682 136 ft 4 kts 331°
2026-05-06 18:00 1.12249 104.11690 136 ft 4 kts 11°
2026-05-06 18:00 1.12238 104.11687 136 ft 1 kts 41°
2026-05-06 18:02 1.12247 104.11694 136 ft 7 kts 41°
2026-05-06 18:02 1.12314 104.11753 136 ft 13 kts 40°
2026-05-06 18:02 1.12331 104.11822 137 ft 16 kts 102°
2026-05-06 18:03 1.12384 104.11912 137 ft 16 kts 40°
2026-05-06 18:03 1.12465 104.11984 136 ft 15 kts 42°
2026-05-06 18:03 1.12542 104.12053 136 ft 15 kts 41°
2026-05-06 18:03 1.12617 104.12118 136 ft 14 kts 41°
2026-05-06 18:04 1.12688 104.12181 136 ft 13 kts 41°
2026-05-06 18:04 1.12756 104.12241 136 ft 13 kts 41°
2026-05-06 18:04 1.12823 104.12299 136 ft 13 kts 41°
2026-05-06 18:04 1.12888 104.12355 136 ft 12 kts 41°
2026-05-06 18:05 1.12957 104.12418 136 ft 15 kts 41°
2026-05-06 18:05 1.13041 104.12493 136 ft 18 kts 41°
2026-05-06 18:05 1.13139 104.12579 136 ft 20 kts 41°
2026-05-06 18:05 1.13220 104.12650 136 ft 13 kts 42°
2026-05-06 18:06 1.13245 104.12695 136 ft 8 kts 81°
2026-05-06 18:06 1.13222 104.12754 137 ft 11 kts 128°
2026-05-06 18:06 1.13160 104.12795 137 ft 11 kts 173°
2026-05-06 18:06 1.13082 104.12750 137 ft 30 kts 220°
2026-05-06 18:07 1.12703 104.12416 135 ft 115 kts 221°
2026-05-06 18:07 1.11919 104.11722 213 ft 179 kts 221°
2026-05-06 18:07 1.10941 104.10847 1005 ft 191 kts 224°
2026-05-06 18:07 1.09916 104.09851 1631 ft 221 kts 222°
2026-05-06 18:08 1.08687 104.08755 1885 ft 252 kts 221°
2026-05-06 18:08 1.07314 104.07546 2150 ft 275 kts 221°
2026-05-06 18:08 1.05799 104.06242 2346 ft 303 kts 216°
2026-05-06 18:08 1.03813 104.05423 2895 ft 317 kts 187°
2026-05-06 18:09 1.01634 104.05711 3726 ft 321 kts 157°
2026-05-06 18:09 0.99856 104.07054 4568 ft 325 kts 128°
2026-05-06 18:09 0.98926 104.09105 5366 ft 330 kts 102°
2026-05-06 18:09 0.98565 104.11388 6175 ft 334 kts 98°
2026-05-06 18:10 0.98156 104.13638 6868 ft 338 kts 103°
2026-05-06 18:10 0.97503 104.15922 7611 ft 341 kts 109°
2026-05-06 18:10 0.96662 104.18158 8359 ft 344 kts 112°
2026-05-06 18:10 0.95737 104.20376 9086 ft 348 kts 113°
2026-05-06 18:11 0.94770 104.22622 9777 ft 353 kts 115°
2026-05-06 18:11 0.93597 104.24785 10446 ft 355 kts 121°
2026-05-06 18:11 0.92268 104.26878 11126 ft 357 kts 123°
2026-05-06 18:11 0.90901 104.28966 11802 ft 360 kts 123°
2026-05-06 18:12 0.89530 104.31078 12462 ft 363 kts 122°
2026-05-06 18:12 0.88192 104.33175 13109 ft 366 kts 121°
2026-05-06 18:12 0.86811 104.35368 13763 ft 368 kts 121°
2026-05-06 18:12 0.85445 104.37553 14314 ft 372 kts 121°
2026-05-06 18:13 0.84074 104.39755 14863 ft 375 kts 121°
2026-05-06 18:13 0.82714 104.41937 15543 ft 372 kts 121°
2026-05-06 18:13 0.81345 104.44108 16347 ft 369 kts 122°
2026-05-06 18:13 0.79875 104.46220 16900 ft 373 kts 124°
2026-05-06 18:14 0.78337 104.48327 17396 ft 377 kts 125°
2026-05-06 18:14 0.76781 104.50460 17925 ft 381 kts 124°
2026-05-06 18:14 0.75231 104.52612 18424 ft 383 kts 124°
2026-05-06 18:14 0.73672 104.54782 18898 ft 385 kts 127°
2026-05-06 18:15 0.71730 104.56641 19336 ft 391 kts 144°
2026-05-06 18:15 0.69265 104.57821 19794 ft 396 kts 160°
2026-05-06 18:15 0.66616 104.58595 20259 ft 398 kts 162°
2026-05-06 18:15 0.63926 104.59342 20672 ft 402 kts 162°
2026-05-06 18:16 0.61228 104.60110 21085 ft 405 kts 162°
2026-05-06 18:16 0.58511 104.60900 21500 ft 407 kts 161°
2026-05-06 18:16 0.55787 104.61706 21925 ft 409 kts 161°
2026-05-06 18:16 0.53083 104.62510 22326 ft 412 kts 161°
2026-05-06 18:17 0.50293 104.63342 22725 ft 414 kts 161°
2026-05-06 18:17 0.47581 104.64149 23102 ft 417 kts 161°
2026-05-06 18:17 0.44768 104.64984 23486 ft 419 kts 161°
2026-05-06 18:17 0.41959 104.65816 23775 ft 422 kts 161°
2026-05-06 18:18 0.39141 104.66649 24099 ft 423 kts 161°
2026-05-06 18:18 0.36311 104.67487 24410 ft 425 kts 161°
2026-05-06 18:18 0.33466 104.68329 24715 ft 427 kts 161°
2026-05-06 18:18 0.30608 104.69175 25012 ft 429 kts 161°
2026-05-06 18:19 0.27729 104.70028 25306 ft 431 kts 162°
2026-05-06 18:19 0.24880 104.70871 25600 ft 433 kts 162°
2026-05-06 18:19 0.21938 104.71743 25897 ft 435 kts 162°
2026-05-06 18:19 0.19072 104.72592 26178 ft 437 kts 162°
2026-05-06 18:20 0.16148 104.73458 26558 ft 436 kts 162°
2026-05-06 18:20 0.13246 104.74317 26996 ft 434 kts 162°
2026-05-06 18:20 0.10362 104.75175 27426 ft 432 kts 162°
2026-05-06 18:20 0.07468 104.76037 27817 ft 432 kts 162°
2026-05-06 18:21 0.04582 104.76898 28200 ft 432 kts 162°
2026-05-06 18:21 0.01704 104.77756 28627 ft 430 kts 162°
2026-05-06 18:21 -0.01160 104.78610 29073 ft 429 kts 162°
2026-05-06 18:21 -0.03986 104.79452 29472 ft 428 kts 162°
2026-05-06 18:22 -0.06875 104.80314 29865 ft 428 kts 162°
2026-05-06 18:22 -0.09729 104.81164 30222 ft 427 kts 162°
2026-05-06 18:22 -0.12581 104.82014 30574 ft 427 kts 162°
2026-05-06 18:22 -0.15384 104.82850 30901 ft 426 kts 162°
2026-05-06 18:23 -0.18234 104.83699 31258 ft 425 kts 162°
2026-05-06 18:23 -0.21067 104.84543 31615 ft 424 kts 162°
2026-05-06 18:23 -0.23901 104.85388 31947 ft 424 kts 162°
2026-05-06 18:23 -0.26731 104.86231 32274 ft 424 kts 162°
2026-05-06 18:24 -0.29420 104.87316 32580 ft 422 kts 148°
2026-05-06 18:24 -0.31912 104.88927 32938 ft 420 kts 145°
2026-05-06 18:24 -0.34293 104.90566 33269 ft 420 kts 144°
2026-05-06 18:24 -0.36690 104.92241 33564 ft 420 kts 144°
2026-05-06 18:25 -0.39080 104.93908 33879 ft 419 kts 144°
2026-05-06 18:25 -0.41484 104.95571 34166 ft 419 kts 144°
2026-05-06 18:25 -0.43883 104.97216 34441 ft 418 kts 145°
2026-05-06 18:25 -0.46287 104.98854 34695 ft 418 kts 145°
2026-05-06 18:26 -0.48696 105.00489 34954 ft 418 kts 145°
2026-05-06 18:26 -0.51102 105.02118 35217 ft 417 kts 145°
2026-05-06 18:26 -0.53505 105.03743 35470 ft 416 kts 145°
2026-05-06 18:26 -0.55903 105.05364 35733 ft 416 kts 145°
2026-05-06 18:27 -0.58275 105.06968 35988 ft 415 kts 145°
2026-05-06 18:27 -0.60671 105.08588 36212 ft 415 kts 145°
2026-05-06 18:27 -0.65503 105.11856 36332 ft 424 kts 145°
2026-05-06 18:28 -0.70451 105.15204 36417 ft 433 kts 145°
2026-05-06 18:28 -0.75496 105.18617 36498 ft 442 kts 145°
2026-05-06 18:29 -0.80613 105.22078 36570 ft 450 kts 145°
2026-05-06 18:29 -0.85845 105.25617 36657 ft 457 kts 145°
2026-05-06 18:30 -0.88490 105.27406 36767 ft 459 kts 145°
2026-05-06 18:30 -0.91147 105.29204 36845 ft 459 kts 145°
2026-05-06 18:30 -0.96435 105.32780 36853 ft 458 kts 145°
2026-05-06 18:31 -1.01674 105.36325 36856 ft 456 kts 145°
2026-05-06 18:31 -1.06923 105.39876 36860 ft 455 kts 145°
2026-05-06 18:32 -1.12161 105.43420 36860 ft 454 kts 145°
2026-05-06 18:32 -1.17395 105.46962 36863 ft 453 kts 145°
2026-05-06 18:33 -1.22584 105.50473 36861 ft 453 kts 145°
2026-05-06 18:33 -1.27817 105.54014 36863 ft 454 kts 145°
2026-05-06 18:34 -1.33064 105.57565 36869 ft 455 kts 145°
2026-05-06 18:34 -1.38306 105.61113 36866 ft 456 kts 145°
2026-05-06 18:35 -1.43569 105.64675 36865 ft 457 kts 145°
2026-05-06 18:35 -1.48841 105.68243 36864 ft 458 kts 145°
2026-05-06 18:36 -1.54092 105.71798 36862 ft 459 kts 145°
2026-05-06 18:36 -1.59385 105.75381 36864 ft 459 kts 145°
2026-05-06 18:37 -1.63819 105.78382 36863 ft 460 kts 145°
2026-05-06 18:37 -1.69979 105.82553 36863 ft 460 kts 145°
2026-05-06 18:38 -1.74391 105.85540 36861 ft 460 kts 145°
2026-05-06 18:38 -1.79688 105.89127 36861 ft 459 kts 145°
2026-05-06 18:39 -1.84977 105.92709 36860 ft 459 kts 145°
2026-05-06 18:40 -1.92901 105.98075 36864 ft 458 kts 145°
2026-05-06 18:40 -1.98169 106.01643 36864 ft 457 kts 145°
2026-05-06 18:41 -2.03433 106.05209 36864 ft 456 kts 145°
2026-05-06 18:41 -2.08663 106.08753 36864 ft 456 kts 145°
2026-05-06 18:42 -2.13922 106.12298 36860 ft 456 kts 148°
2026-05-06 18:42 -2.19743 106.14790 36861 ft 457 kts 166°
2026-05-06 18:43 -2.25998 106.15911 36864 ft 457 kts 170°
2026-05-06 18:43 -2.32291 106.16914 36863 ft 458 kts 170°
2026-05-06 18:44 -2.38580 106.17951 36865 ft 458 kts 169°
2026-05-06 18:44 -2.44869 106.19020 36861 ft 459 kts 169°
2026-05-06 18:45 -2.51167 106.20100 36862 ft 459 kts 169°
2026-05-06 18:45 -2.57450 106.21179 36861 ft 460 kts 169°
2026-05-06 18:46 -2.63766 106.22262 36856 ft 461 kts 169°
2026-05-06 18:46 -2.70086 106.23345 36859 ft 461 kts 169°
2026-05-06 18:47 -2.76405 106.24428 36857 ft 461 kts 169°
2026-05-06 18:47 -2.82736 106.25513 36855 ft 461 kts 169°
2026-05-06 18:48 -2.89022 106.26591 36852 ft 461 kts 169°
2026-05-06 18:48 -2.95345 106.27675 36852 ft 461 kts 169°
2026-05-06 18:49 -3.01667 106.28759 36850 ft 460 kts 169°
2026-05-06 18:49 -3.07988 106.29843 36849 ft 460 kts 169°
2026-05-06 18:50 -3.14301 106.30926 36847 ft 460 kts 169°
2026-05-06 18:50 -3.20606 106.32008 36851 ft 460 kts 169°
2026-05-06 18:51 -3.26932 106.33093 36853 ft 460 kts 169°
2026-05-06 18:51 -3.33249 106.34177 36850 ft 460 kts 169°
2026-05-06 18:52 -3.39570 106.35262 36852 ft 461 kts 169°
2026-05-06 18:52 -3.45856 106.36341 36851 ft 461 kts 169°
2026-05-06 18:53 -3.52199 106.37431 36855 ft 462 kts 169°
2026-05-06 18:53 -3.58551 106.38521 36856 ft 463 kts 169°
2026-05-06 18:54 -3.64926 106.39628 36856 ft 464 kts 169°
2026-05-06 18:54 -3.71248 106.40805 36859 ft 465 kts 168°
2026-05-06 18:55 -3.77627 106.42011 36851 ft 466 kts 168°
2026-05-06 18:55 -3.84007 106.43209 36852 ft 467 kts 168°
2026-05-06 18:56 -3.90397 106.44402 36853 ft 467 kts 169°
2026-05-06 18:56 -3.96799 106.45596 36854 ft 468 kts 169°
2026-05-06 18:57 -4.03199 106.46790 36852 ft 467 kts 169°
2026-05-06 18:57 -4.09557 106.47977 36856 ft 467 kts 169°
2026-05-06 18:58 -4.15942 106.49168 36855 ft 466 kts 169°
2026-05-06 18:58 -4.22335 106.50362 36856 ft 466 kts 169°
2026-05-06 18:59 -4.28709 106.51553 36855 ft 465 kts 169°
2026-05-06 18:59 -4.35015 106.52731 36854 ft 464 kts 169°
2026-05-06 19:00 -4.41366 106.53917 36854 ft 463 kts 169°
2026-05-06 19:00 -4.47701 106.55101 36855 ft 462 kts 169°
2026-05-06 19:01 -4.54027 106.56283 36857 ft 461 kts 169°
2026-05-06 19:01 -4.60341 106.57463 36857 ft 460 kts 169°
2026-05-06 19:02 -4.66632 106.58639 36858 ft 460 kts 169°
2026-05-06 19:02 -4.72921 106.59815 36857 ft 460 kts 169°
2026-05-06 19:03 -4.79207 106.60991 36857 ft 459 kts 169°
2026-05-06 19:03 -4.85447 106.62164 36851 ft 459 kts 167°
2026-05-06 19:03 -4.88479 106.63151 36857 ft 459 kts 156°
2026-05-06 19:04 -4.91397 106.64486 36814 ft 462 kts 154°
2026-05-06 19:04 -4.94326 106.65893 36268 ft 467 kts 154°
2026-05-06 19:04 -4.97242 106.67297 35802 ft 463 kts 154°
2026-05-06 19:04 -5.00148 106.68673 35331 ft 460 kts 154°
2026-05-06 19:05 -5.03042 106.70021 34835 ft 457 kts 154°
2026-05-06 19:05 -5.05933 106.71351 34256 ft 457 kts 154°
2026-05-06 19:05 -5.08820 106.72673 33696 ft 457 kts 154°
2026-05-06 19:05 -5.11721 106.74000 33067 ft 456 kts 154°
2026-05-06 19:06 -5.14612 106.75325 32449 ft 456 kts 154°
2026-05-06 19:06 -5.17493 106.76646 31849 ft 455 kts 154°
2026-05-06 19:06 -5.20363 106.77954 31270 ft 454 kts 154°
2026-05-06 19:06 -5.23247 106.79260 30692 ft 453 kts 154°
2026-05-06 19:07 -5.26112 106.80554 30129 ft 452 kts 154°
2026-05-06 19:07 -5.28940 106.81831 29515 ft 450 kts 154°
2026-05-06 19:07 -5.31772 106.83112 28849 ft 440 kts 154°
2026-05-06 19:07 -5.34533 106.84363 28212 ft 431 kts 154°
2026-05-06 19:08 -5.37248 106.85593 27583 ft 422 kts 154°
2026-05-06 19:08 -5.39903 106.86796 26973 ft 414 kts 154°
2026-05-06 19:08 -5.42513 106.87979 26379 ft 407 kts 154°
2026-05-06 19:08 -5.45095 106.89078 25785 ft 402 kts 162°
2026-05-06 19:09 -5.47833 106.89459 25219 ft 398 kts 180°
2026-05-06 19:09 -5.50532 106.89028 24659 ft 395 kts 197°
2026-05-06 19:09 -5.53106 106.88091 24157 ft 389 kts 200°
2026-05-06 19:09 -5.55603 106.87098 23734 ft 385 kts 200°
2026-05-06 19:10 -5.58094 106.86093 23284 ft 385 kts 200°
2026-05-06 19:10 -5.60583 106.85098 22780 ft 383 kts 200°
2026-05-06 19:10 -5.63070 106.84118 22277 ft 383 kts 200°
2026-05-06 19:10 -5.65522 106.83162 21793 ft 383 kts 199°
2026-05-06 19:11 -5.68007 106.82200 21307 ft 382 kts 199°
2026-05-06 19:11 -5.70479 106.81245 20816 ft 377 kts 199°
2026-05-06 19:11 -5.72909 106.80308 20334 ft 369 kts 199°
2026-05-06 19:11 -5.75278 106.79394 19864 ft 362 kts 199°
2026-05-06 19:12 -5.77611 106.78494 19401 ft 355 kts 199°
2026-05-06 19:12 -5.79897 106.77612 18946 ft 350 kts 199°
2026-05-06 19:12 -5.82184 106.76731 18516 ft 352 kts 199°
2026-05-06 19:12 -5.84467 106.75828 18078 ft 354 kts 204°
2026-05-06 19:13 -5.86447 106.74397 17522 ft 351 kts 226°
2026-05-06 19:13 -5.87794 106.72382 17039 ft 347 kts 244°
2026-05-06 19:13 -5.88702 106.70191 16572 ft 341 kts 248°
2026-05-06 19:13 -5.89558 106.67949 16076 ft 337 kts 248°
2026-05-06 19:14 -5.90392 106.65761 15598 ft 333 kts 248°
2026-05-06 19:14 -5.91231 106.63607 15125 ft 330 kts 247°
2026-05-06 19:14 -5.92065 106.61505 14675 ft 326 kts 247°
2026-05-06 19:14 -5.92905 106.59403 14215 ft 323 kts 246°
2026-05-06 19:15 -5.93745 106.57314 13762 ft 320 kts 246°
2026-05-06 19:15 -5.94583 106.55255 13264 ft 318 kts 246°
2026-05-06 19:15 -5.95419 106.53209 12820 ft 314 kts 246°
2026-05-06 19:15 -5.96242 106.51196 12395 ft 309 kts 246°
2026-05-06 19:16 -5.97052 106.49212 11983 ft 305 kts 246°
2026-05-06 19:16 -5.97853 106.47248 11574 ft 301 kts 247°
2026-05-06 19:16 -5.98641 106.45315 11167 ft 298 kts 247°
2026-05-06 19:16 -5.99424 106.43394 10769 ft 294 kts 247°
2026-05-06 19:17 -6.00193 106.41504 10377 ft 291 kts 247°
2026-05-06 19:17 -6.00956 106.39631 9986 ft 289 kts 248°
2026-05-06 19:17 -6.01712 106.37776 9620 ft 282 kts 248°
2026-05-06 19:17 -6.02444 106.35977 9200 ft 274 kts 248°
2026-05-06 19:18 -6.03149 106.34251 8786 ft 267 kts 246°
2026-05-06 19:18 -6.04178 106.32758 8380 ft 257 kts 218°
2026-05-06 19:18 -6.05722 106.31964 8043 ft 245 kts 192°
2026-05-06 19:18 -6.07368 106.31843 7727 ft 232 kts 172°
2026-05-06 19:19 -6.08941 106.32081 7411 ft 227 kts 167°
2026-05-06 19:19 -6.10483 106.32373 7119 ft 223 kts 166°
2026-05-06 19:19 -6.11995 106.32660 6835 ft 220 kts 166°
2026-05-06 19:19 -6.13483 106.32935 6550 ft 217 kts 167°
2026-05-06 19:20 -6.14966 106.33202 6269 ft 214 kts 167°
2026-05-06 19:20 -6.16424 106.33462 5975 ft 212 kts 167°
2026-05-06 19:20 -6.17879 106.33720 5684 ft 211 kts 167°
2026-05-06 19:20 -6.19319 106.33975 5394 ft 209 kts 166°
2026-05-06 19:21 -6.20226 106.34255 5178 ft 205 kts 146°
2026-05-06 19:21 -6.21447 106.35628 4825 ft 196 kts 120°
2026-05-06 19:21 -6.22165 106.36780 4539 ft 196 kts 119°
2026-05-06 19:21 -6.22871 106.37929 4315 ft 191 kts 119°
2026-05-06 19:22 -6.23546 106.39062 4105 ft 188 kts 112°
2026-05-06 19:22 -6.23626 106.40321 3955 ft 182 kts 72°
2026-05-06 19:22 -6.23339 106.41137 3901 ft 184 kts 72°
2026-05-06 19:22 -6.22785 106.42744 3703 ft 179 kts 71°
2026-05-06 19:23 -6.22501 106.43505 3610 ft 173 kts 70°
2026-05-06 19:23 -6.21940 106.44955 3404 ft 160 kts 70°
2026-05-06 19:23 -6.21672 106.45638 3278 ft 158 kts 70°
2026-05-06 19:23 -6.21266 106.46667 3091 ft 159 kts 70°
2026-05-06 19:24 -6.20855 106.47705 3040 ft 161 kts 70°
2026-05-06 19:24 -6.20303 106.49099 3001 ft 162 kts 70°
2026-05-06 19:24 -6.20022 106.49809 2938 ft 163 kts 70°
2026-05-06 19:24 -6.19484 106.51166 2699 ft 152 kts 69°
2026-05-06 19:25 -6.19220 106.51829 2561 ft 148 kts 70°
2026-05-06 19:25 -6.18715 106.53107 2318 ft 151 kts 70°
2026-05-06 19:25 -6.18454 106.53765 2180 ft 154 kts 69°
2026-05-06 19:25 -6.18060 106.54759 1986 ft 153 kts 70°
2026-05-06 19:26 -6.17666 106.55754 1782 ft 152 kts 69°
2026-05-06 19:26 -6.17269 106.56756 1591 ft 154 kts 70°
2026-05-06 19:26 -6.16744 106.58082 1324 ft 155 kts 70°
2026-05-06 19:26 -6.16475 106.58761 1185 ft 154 kts 69°
2026-05-06 19:27 -6.16086 106.59743 996 ft 154 kts 70°
2026-05-06 19:27 -6.15690 106.60744 816 ft 155 kts 69°
2026-05-06 19:27 -6.15290 106.61753 613 ft 155 kts 69°
2026-05-06 19:27 -6.14899 106.62750 432 ft 150 kts 70°
2026-05-06 19:28 -6.14510 106.63714 217 ft 147 kts 70°
2026-05-06 19:28 -6.14148 106.64629 53 ft 134 kts 69°
2026-05-06 19:28 -6.13832 106.65424 39 ft 110 kts 68°
2026-05-06 19:28 -6.13592 106.66021 37 ft 74 kts 68°
2026-05-06 19:29 -6.13448 106.66384 40 ft 39 kts 68°
2026-05-06 19:29 -6.13364 106.66561 42 ft 25 kts 54°
2026-05-06 19:29 -6.13254 106.66673 40 ft 14 kts 37°
2026-05-06 19:29 -6.13248 106.66677 40 ft 1 kts 38°
2026-05-06 19:30 -6.13239 106.66684 40 ft 3 kts 38°
2026-05-06 19:30 -6.13198 106.66704 39 ft 10 kts
2026-05-06 19:30 -6.13123 106.66727 38 ft 12 kts 51°
2026-05-06 19:30 -6.13085 106.66805 38 ft 13 kts 68°
2026-05-06 19:31 -6.13048 106.66897 38 ft 16 kts 68°
2026-05-06 19:31 -6.13004 106.67010 36 ft 19 kts 68°
2026-05-06 19:31 -6.12892 106.67290 38 ft 24 kts 69°
2026-05-06 19:32 -6.12834 106.67443 36 ft 24 kts 63°
2026-05-06 19:32 -6.12744 106.67595 36 ft 27 kts 59°
2026-05-06 19:32 -6.12644 106.67753 37 ft 26 kts 50°
2026-05-06 19:32 -6.12490 106.67853 37 ft 27 kts 14°
2026-05-06 19:33 -6.12300 106.67846 38 ft 29 kts 341°
2026-05-06 19:33 -6.12121 106.67775 47 ft 27 kts 338°
2026-05-06 19:33 -6.11952 106.67707 57 ft 25 kts 339°
2026-05-06 19:33 -6.11795 106.67644 60 ft 25 kts 339°
2026-05-06 19:34 -6.11649 106.67588 48 ft 24 kts 339°
2026-05-06 19:34 -6.11456 106.67510 37 ft 31 kts 339°
2026-05-06 19:34 -6.11261 106.67432 37 ft 28 kts 338°
2026-05-06 19:34 -6.11209 106.67409 36 ft 5 kts 353°
2026-05-06 19:35 -6.11162 106.67394 37 ft 9 kts 338°
2026-05-06 19:35 -6.11102 106.67350 37 ft 12 kts 306°
2026-05-06 19:35 -6.11091 106.67258 37 ft 15 kts 260°
2026-05-06 19:35 -6.11117 106.67142 37 ft 19 kts 257°
2026-05-06 19:36 -6.11147 106.67010 37 ft 20 kts 256°
2026-05-06 19:36 -6.11193 106.66901 37 ft 13 kts 229°
2026-05-06 19:36 -6.11274 106.66893 37 ft 10 kts 162°
2026-05-06 19:36 -6.11341 106.66920 37 ft 11 kts 158°
2026-05-06 19:37 -6.11419 106.66944 37 ft 13 kts 181°
2026-05-06 19:37 -6.11477 106.66882 37 ft 11 kts 249°
2026-05-06 19:37 -6.11511 106.66798 37 ft 15 kts 248°
2026-05-06 19:37 -6.11550 106.66700 36 ft 12 kts 248°
2026-05-06 19:38 -6.11559 106.66676 36 ft 0 kts 249°
2026-05-06 19:39 -6.11562 106.66669 37 ft 3 kts 249°
2026-05-06 19:39 -6.11574 106.66637 31 ft 7 kts 248°
2026-05-06 19:40 -6.11599 106.66577 34 ft 11 kts 249°
2026-05-06 19:40 -6.11620 106.66529 36 ft 0 kts 221°
2026-05-06 19:40 -6.11627 106.66529 37 ft 3 kts 190°
2026-05-06 19:40 -6.11645 106.66529 37 ft 2 kts 167°
2026-05-06 19:41 -6.11661 106.66533 37 ft 2 kts 166°
2026-05-06 19:41 -6.11671 106.66538 35 ft 1 kts 152°
2026-05-06 19:41 -6.11673 106.66539 35 ft 0 kts 152°
2026-05-06 19:43 -6.11668 106.66537 37 ft 2 kts 152°
2026-05-06 19:44 -6.11653 106.66530 37 ft 2 kts 159°
2026-05-06 19:44 -6.11637 106.66525 37 ft 2 kts 177°
2026-05-06 19:44 -6.11621 106.66529 36 ft 2 kts 236°
2026-05-06 19:44 -6.11616 106.66539 36 ft 1 kts 248°
2026-05-06 19:45 -6.11616 106.66540 36 ft 0 kts 248°
2026-05-06 19:45 -6.11616 106.66538 35 ft 1 kts 253°
2026-05-06 19:45 -6.11621 106.66523 37 ft 4 kts 252°
2026-05-06 19:46 -6.11633 106.66488 37 ft 7 kts 249°
2026-05-06 19:46 -6.11655 106.66434 37 ft 10 kts 249°
2026-05-06 19:46 -6.11683 106.66364 37 ft 11 kts 248°
2026-05-06 19:46 -6.11708 106.66306 37 ft 5 kts 234°
2026-05-06 19:47 -6.11741 106.66305 37 ft 6 kts 157°
2026-05-06 19:47 -6.11759 106.66314 37 ft 3 kts 151°
2026-05-06 19:47 -6.11773 106.66320 37 ft 2 kts 161°
2026-05-06 19:47 -6.11782 106.66323 37 ft 2 kts 164°
2026-05-06 19:48 -6.11791 106.66325 37 ft 1 kts 165°
2026-05-06 19:48 -6.11795 106.66326 37 ft 0 kts 165°
2026-05-06 19:48 -6.11793 106.66326 37 ft 2 kts 165°
2026-05-06 19:49 -6.11795 106.66326 37 ft 0 kts 165°